[[{"header":{"parameterUnit":"m.s-1","parameterCategory":1,"la1":30.2991,"la2":30.254,"lo1":-89.0895,"lo2":-89.0444,"dy":0.0017,"dx":0.0017,"nx":28,"ny":28,"refTime":"2023-10-18T03:00:00:Z","depth":0,"parameterNumber":2,"parameterNumberName":"U-component_of_WINDS"},"data":[0,0,0,0,0,0,0,0,0,0,0,0,0,0,0,0,0,0,0,0,0,0,0,0,0,0,0,0,0,0,0,0,0,0,0,0,0,0,0,0,0,0,0,0,0,0,0,0,0,0,0,0,0,0,0,0,0,0,0.5887,0.5885,0,0.573,0.5728,0.5726,0.5534,0.5531,0.5528,0.5525,0.5366,0.5364,0.5363,0,0,0,0,0,0,0,0,0,0,0,0,0,0.6021,0.602,0.5887,0.5885,0.5883,0.573,0.5728,0.5726,0.5534,0.5531,0.5527,0.5524,0.5366,0.5364,0.5363,0,0,0,0,0,0,0,0,0,0,0,0,0,0.5924,0.602,0.5887,0.5769,0.5757,0.5731,0.5728,0.5725,0.5535,0.5531,0.5526,0.5522,0.5367,0.5365,0.5362,0.544,0,0,0.5356,0.5355,0,0,0,0,0,0,0,0,0.593,0.5919,0.5788,0.5777,0.5763,0.5647,0.5717,0.563,0.5536,0.5619,0.5525,0.552,0.5463,0.5453,0.5433,0.5433,0.5426,0.5356,0.5354,0.5354,0.5353,0,0,0,0,0,0,0,0.5937,0.5925,0.5825,0.5787,0.5771,0.5724,0.5705,0.5699,0.5569,0.5612,0.5597,0.5582,0.5455,0.5436,0.5428,0.5423,0.5356,0.5354,0.5353,0.5352,0.548,0.5484,0,0,0,0,0,0,0.5961,0.5932,0.583,0.582,0.5837,0.5725,0.5704,0.5689,0.5568,0.5545,0.5586,0.5573,0.5442,0.5431,0.5422,0.5506,0.5354,0.5352,0.535,0.5475,0.5481,0.5486,0,0,0,0,0,0,0.5965,0.5954,0.5836,0.5872,0.5853,0.5728,0.5712,0.5688,0.5668,0.5548,0.5524,0.559,0.5438,0.5425,0.5437,0.5498,0.5351,0.5349,0.547,0.5477,0.5483,0.5675,0,0,0,0,0,0,0.5969,0.5956,0.5984,0.5874,0.5852,0.5855,0.5716,0.5688,0.5665,0.5647,0.5546,0.5524,0.5433,0.5441,0.5435,0.5492,0.5347,0.5464,0.5473,0.5481,0.5663,0.5688,0.5709,0,0,0,0,0,0.5975,0.6045,0.5987,0.5976,0.5885,0.5859,0.5846,0.5739,0.5671,0.5698,0.5621,0.5528,0.5492,0.5444,0.5435,0.5493,0.5459,0.547,0.548,0.5652,0.5683,0.5709,0,0,0,0,0,0,0.6166,0.6028,0.5962,0.5998,0.5942,0.5826,0.5858,0.5775,0.5736,0.5721,0.559,0.5569,0.5598,0.5545,0.5495,0.5562,0.5462,0.5471,0.5596,0.5623,0.5646,0.5659,0.5345,0,0,0,0,0,0.6212,0.6202,0.6082,0.6125,0.61,0.5985,0.5969,0.5891,0.5827,0.5803,0.5726,0.5668,0.5643,0.563,0.56,0.5653,0.5629,0.5688,0.5712,0.5731,0.5742,0.5767,0.5793,0.552,0.552,0.552,0,0,0.6308,0.6231,0.6233,0.6162,0.6109,0.6102,0.5966,0.5964,0.5958,0.5802,0.581,0.5752,0.5678,0.5712,0.5723,0.5669,0.5811,0.5745,0.5761,0.5761,0.5781,0.5807,0.583,0.5528,0.5526,0.5525,0,0,0.6479,0.6419,0.645,0.6399,0.632,0.6243,0.6251,0.6147,0.6103,0.6108,0.5992,0.5982,0.5942,0.5895,0.5866,0.6019,0.5933,0.6013,0.6135,0.6162,0.6183,0.6202,0.6259,0.628,0.6023,0.6024,0.6024,0,0.6608,0.6593,0.6476,0.6482,0.6455,0.6313,0.6343,0.63,0.6216,0.6201,0.6142,0.6089,0.6029,0.6051,0.6089,0.6069,0.6074,0.6025,0.6189,0.6207,0.6222,0.6275,0.6297,0.6034,0.6033,0.6032,0.6031,0,0.6757,0.6748,0.6782,0.6705,0.6681,0.6699,0.6586,0.6575,0.65,0.6429,0.6437,0.636,0.6313,0.6311,0.6237,0.6323,0.6292,0.6214,0.611,0.6261,0.6308,0.6327,0.6049,0.6046,0.6042,0.604,0,0,0.7046,0.6903,0.6918,0.6882,0.6784,0.6775,0.6787,0.6741,0.6736,0.6682,0.669,0.666,0.6586,0.6553,0.6472,0.6495,0.6624,0.6413,0.6409,0.6457,0.6716,0.6778,0.6803,0.6565,0.6568,0.6571,0.6722,0,0.7201,0.7214,0.7109,0.715,0.7141,0.7006,0.7016,0.6958,0.6892,0.6875,0.6801,0.6783,0.6686,0.6665,0.6682,0.6605,0.6675,0.6592,0.6573,0.6573,0.6598,0.6827,0.6893,0.704,0.674,0.6743,0.6745,0,0.7384,0.7341,0.7383,0.7284,0.7276,0.7288,0.7237,0.7222,0.7154,0.7103,0.7068,0.6975,0.698,0.688,0.6886,0.6833,0.6818,0.6779,0.6782,0.6778,0.6671,0.6832,0.7083,0.7107,0.6773,0.6771,0.6769,0,0.7594,0.7546,0.7565,0.7537,0.7422,0.7434,0.7386,0.7313,0.7292,0.7248,0.7233,0.7191,0.7168,0.7137,0.7036,0.6972,0.7055,0.6946,0.7015,0.7018,0.704,0.7041,0.7296,0.7027,0.7027,0.7026,0.7026,0,0.778,0.7811,0.7658,0.767,0.77,0.7579,0.7613,0.7552,0.7488,0.7486,0.7365,0.7366,0.723,0.7216,0.7136,0.7155,0.7144,0.7105,0.7084,0.7118,0.7123,0.7108,0.7096,0.7032,0.7031,0.703,0.7029,0,0.8021,0.7919,0.7931,0.782,0.7793,0.7822,0.7727,0.7734,0.7659,0.7658,0.7651,0.7535,0.7512,0.7407,0.7359,0.7305,0.7351,0.7308,0.7375,0.7362,0.7437,0.7433,0.7694,0.7723,0.7434,0.7437,0.744,0,0.8147,0.8168,0.806,0.805,0.8008,0.7994,0.7972,0.7853,0.7835,0.7759,0.7775,0.7742,0.771,0.768,0.7591,0.7554,0.751,0.7604,0.7504,0.7537,0.7514,0.7516,0.7518,0.7627,0.7631,0.7634,0.7636,0,0.8384,0.8332,0.8306,0.8263,0.824,0.82,0.8153,0.8152,0.8019,0.8006,0.7981,0.7956,0.7907,0.7877,0.7824,0.7775,0.7685,0.7668,0.7682,0.7718,0.7757,0.7739,0.7437,0.7663,0.766,0.7658,0.7657,0.7656,0.8572,0.8585,0.8512,0.8487,0.8438,0.8397,0.8398,0.8324,0.8301,0.8253,0.8183,0.8168,0.8098,0.8019,0.7977,0.7964,0.7912,0.7933,0.7938,0.7946,0.7964,0.7758,0.7954,0.7953,0.7952,0.7951,0.795,0,0.8805,0.8751,0.8729,0.8667,0.8647,0.8562,0.8505,0.8495,0.8483,0.8426,0.8397,0.8369,0.8339,0.8248,0.8209,0.8216,0.8173,0.821,0.8209,0.82,0.8011,0.8003,0.8245,0.8245,0.8244,0.8244,0.8244,0.8244,0.8923,0.8941,0.8882,0.8874,0.8819,0.8804,0.8779,0.8741,0.8694,0.8669,0.8643,0.8584,0.8513,0.8468,0.8437,0.8411,0.8403,0.8454,0.8415,0.8241,0.8213,0.8186,0.8179,0.8453,0.8453,0.8605,0.8606,0.8607]},{"header":{"parameterUnit":"m.s-1","parameterCategory":1,"la1":30.2991,"la2":30.254,"lo1":-89.0895,"lo2":-89.0444,"dy":0.0017,"dx":0.0017,"nx":28,"ny":28,"refTime":"2023-10-18T03:00:00:Z","depth":0,"parameterNumber":3,"parameterNumberName":"V-component_of_WINDS"},"data":[0,0,0,0,0,0,0,0,0,0,0,0,0,0,0,0,0,0,0,0,0,0,0,0,0,0,0,0,0,0,0,0,0,0,0,0,0,0,0,0,0,0,0,0,0,0,0,0,0,0,0,0,0,0,0,0,0,0,-1.3134,-1.3134,0,-1.3054,-1.3053,-1.3052,-1.3008,-1.3008,-1.3008,-1.3008,-1.2922,-1.292,-1.2918,0,0,0,0,0,0,0,0,0,0,0,0,0,-1.3247,-1.3245,-1.3134,-1.3133,-1.3132,-1.3054,-1.3053,-1.3052,-1.3008,-1.3008,-1.3008,-1.3008,-1.2923,-1.292,-1.2918,0,0,0,0,0,0,0,0,0,0,0,0,0,-1.3185,-1.3244,-1.3135,-1.3101,-1.3098,-1.3054,-1.3053,-1.3051,-1.3008,-1.3008,-1.3008,-1.3008,-1.2924,-1.2921,-1.2918,-1.29,0,0,-1.2907,-1.2906,0,0,0,0,0,0,0,0,-1.3189,-1.3181,-1.3107,-1.3104,-1.3099,-1.3041,-1.3061,-1.3001,-1.3008,-1.3042,-1.3008,-1.3008,-1.2962,-1.2955,-1.294,-1.2896,-1.2892,-1.2907,-1.2905,-1.2904,-1.2903,0,0,0,0,0,0,0,-1.3193,-1.3184,-1.3102,-1.3106,-1.3101,-1.3089,-1.308,-1.3049,-1.3004,-1.3039,-1.3036,-1.3027,-1.2959,-1.2944,-1.2938,-1.2891,-1.2907,-1.2904,-1.2902,-1.2901,-1.2827,-1.2827,0,0,0,0,0,0,-1.3203,-1.3188,-1.3105,-1.31,-1.3145,-1.3087,-1.3077,-1.306,-1.3004,-1.2995,-1.3027,-1.3025,-1.2949,-1.2942,-1.2935,-1.291,-1.2904,-1.2901,-1.2899,-1.2827,-1.2827,-1.2827,0,0,0,0,0,0,-1.3206,-1.3196,-1.3108,-1.3143,-1.3131,-1.3086,-1.3066,-1.3058,-1.3042,-1.2995,-1.2986,-1.302,-1.2949,-1.294,-1.2909,-1.2906,-1.2899,-1.2896,-1.2827,-1.2827,-1.2827,-1.286,0,0,0,0,0,0,-1.3209,-1.3197,-1.3191,-1.3143,-1.3129,-1.3085,-1.3066,-1.3057,-1.3037,-1.3034,-1.2986,-1.2977,-1.2948,-1.2914,-1.2906,-1.2902,-1.2894,-1.2827,-1.2827,-1.2827,-1.2859,-1.2861,-1.2863,0,0,0,0,0,-1.3213,-1.3203,-1.3191,-1.3181,-1.3121,-1.3085,-1.3077,-1.3044,-1.3037,-1.303,-1.2999,-1.2979,-1.2908,-1.2911,-1.2901,-1.2896,-1.2827,-1.2827,-1.2827,-1.2858,-1.2861,-1.2863,0,0,0,0,0,0,-1.3251,-1.3197,-1.3182,-1.3157,-1.3126,-1.3078,-1.3067,-1.3048,-1.3018,-1.3016,-1.2976,-1.2965,-1.2938,-1.2914,-1.2919,-1.2876,-1.2865,-1.2863,-1.2892,-1.2895,-1.2897,-1.2903,-1.2891,0,0,0,0,0,-1.3257,-1.3233,-1.3186,-1.3168,-1.3154,-1.3113,-1.3096,-1.3074,-1.304,-1.3026,-1.2993,-1.296,-1.293,-1.2911,-1.2881,-1.2855,-1.2843,-1.2847,-1.2849,-1.2851,-1.2849,-1.2833,-1.2834,-1.2827,-1.2827,-1.2827,0,0,-1.3268,-1.3235,-1.3222,-1.3175,-1.3148,-1.3124,-1.3103,-1.3077,-1.3058,-1.3022,-1.2991,-1.2966,-1.2926,-1.2897,-1.2883,-1.2876,-1.2849,-1.2851,-1.2853,-1.285,-1.2833,-1.2834,-1.2834,-1.2827,-1.2827,-1.2827,0,0,-1.3275,-1.3248,-1.323,-1.3204,-1.3164,-1.3137,-1.3133,-1.3087,-1.3069,-1.3038,-1.301,-1.2985,-1.2935,-1.2907,-1.2887,-1.2883,-1.2862,-1.2874,-1.2884,-1.2869,-1.2869,-1.287,-1.2867,-1.2867,-1.2873,-1.2873,-1.2873,0,-1.3293,-1.3256,-1.3223,-1.3199,-1.3178,-1.3146,-1.3126,-1.3101,-1.3053,-1.3039,-1.3033,-1.2968,-1.2939,-1.2903,-1.2902,-1.2887,-1.288,-1.2879,-1.2872,-1.2872,-1.2872,-1.2869,-1.2868,-1.2874,-1.2874,-1.2874,-1.2874,0,-1.328,-1.3254,-1.3244,-1.3199,-1.3177,-1.3156,-1.3118,-1.31,-1.3079,-1.3053,-1.302,-1.2984,-1.2945,-1.2935,-1.2915,-1.2896,-1.2893,-1.288,-1.2868,-1.2875,-1.2871,-1.287,-1.2877,-1.2876,-1.2876,-1.2875,0,0,-1.3308,-1.3246,-1.3242,-1.3221,-1.3175,-1.3153,-1.313,-1.3093,-1.3077,-1.3045,-1.3023,-1.2981,-1.2968,-1.2945,-1.2921,-1.2907,-1.2905,-1.2895,-1.2894,-1.2898,-1.2881,-1.2891,-1.289,-1.2891,-1.2891,-1.2891,-1.2884,0,-1.3308,-1.3265,-1.3234,-1.3203,-1.3178,-1.3146,-1.3125,-1.3093,-1.3068,-1.3042,-1.3013,-1.2983,-1.2969,-1.2955,-1.294,-1.2909,-1.2901,-1.2909,-1.2869,-1.2868,-1.288,-1.2888,-1.2899,-1.2894,-1.2882,-1.2882,-1.2882,0,-1.3302,-1.3271,-1.3238,-1.3193,-1.3181,-1.3163,-1.3127,-1.3103,-1.3066,-1.3048,-1.3022,-1.2997,-1.2969,-1.296,-1.292,-1.2926,-1.2908,-1.289,-1.2889,-1.2884,-1.2875,-1.2882,-1.2891,-1.2891,-1.288,-1.288,-1.288,0,-1.3325,-1.3275,-1.3249,-1.3232,-1.3179,-1.3167,-1.3144,-1.3107,-1.3087,-1.3054,-1.304,-1.3005,-1.2985,-1.2958,-1.2923,-1.292,-1.2886,-1.2875,-1.287,-1.287,-1.2863,-1.2864,-1.2869,-1.2853,-1.2853,-1.2853,-1.2853,0,-1.3327,-1.3307,-1.3258,-1.3242,-1.3218,-1.3182,-1.316,-1.3134,-1.3101,-1.3078,-1.3048,-1.3027,-1.2983,-1.2956,-1.2929,-1.2899,-1.2891,-1.2875,-1.2867,-1.2877,-1.2879,-1.2864,-1.2863,-1.2853,-1.2853,-1.2853,-1.2853,0,-1.3348,-1.3315,-1.3283,-1.3237,-1.3224,-1.3209,-1.3168,-1.315,-1.3123,-1.3094,-1.3085,-1.3041,-1.3008,-1.2971,-1.2925,-1.2907,-1.2878,-1.2869,-1.2891,-1.2887,-1.2883,-1.2884,-1.2878,-1.2875,-1.2863,-1.2863,-1.2863,0,-1.3352,-1.3336,-1.3288,-1.3271,-1.3249,-1.3222,-1.3201,-1.3165,-1.3144,-1.31,-1.3087,-1.3052,-1.3021,-1.2969,-1.2932,-1.2897,-1.2885,-1.2886,-1.288,-1.2889,-1.2884,-1.2885,-1.2883,-1.2888,-1.2888,-1.2888,-1.2888,0,-1.3361,-1.3345,-1.3317,-1.3283,-1.3259,-1.323,-1.32,-1.3187,-1.3144,-1.3122,-1.3088,-1.3065,-1.3018,-1.2983,-1.2942,-1.2917,-1.2895,-1.2891,-1.2887,-1.2896,-1.291,-1.2902,-1.2896,-1.2891,-1.2891,-1.289,-1.289,-1.289,-1.3372,-1.3357,-1.332,-1.3289,-1.3263,-1.3235,-1.3216,-1.3187,-1.3158,-1.3118,-1.3098,-1.3064,-1.3025,-1.2969,-1.2945,-1.2917,-1.291,-1.2905,-1.2904,-1.2903,-1.2905,-1.2915,-1.2909,-1.2909,-1.2909,-1.2909,-1.2909,0,-1.3379,-1.3354,-1.3327,-1.3286,-1.3261,-1.3244,-1.3209,-1.3189,-1.316,-1.3127,-1.3098,-1.3058,-1.3024,-1.2985,-1.2947,-1.2932,-1.2921,-1.2923,-1.2923,-1.2918,-1.2914,-1.292,-1.2933,-1.2933,-1.2933,-1.2933,-1.2933,-1.2933,-1.338,-1.3352,-1.3332,-1.329,-1.3264,-1.3232,-1.3213,-1.3187,-1.3161,-1.3118,-1.3089,-1.3065,-1.3029,-1.2988,-1.2955,-1.2945,-1.2932,-1.2937,-1.2923,-1.292,-1.2918,-1.2916,-1.2922,-1.2935,-1.2935,-1.2929,-1.2929,-1.2929]}]]